FW3849 Weather Reports


time (UTC)temp
C
wind
direction
speed
KPH
gust
KPH
rain 1hr
cm
rain 24hr
cm
rain mn
cm
humidity
%
barometer
mb
20260502212020 21 113 8.0 19.3 0.00 0.00 0.00 27 1021.9
20260502211527 22 110 8.0 19.3 0.00 0.00 0.00 27 1022.2
20260502211014 22 161 6.4 16.1 0.00 0.00 0.00 26 1022.1
20260502210514 22 215 3.2 9.7 0.00 0.00 0.00 26 1022.2
20260502210013 21 54 3.2 8.0 0.00 0.00 0.00 29 1022.2
20260502205012 21 221 4.8 9.7 0.00 0.00 0.00 29 1022.4
20260502204512 21 179 3.2 17.7 0.00 0.00 0.00 28 1022.5
20260502204012 21 149 6.4 17.7 0.00 0.00 0.00 27 1022.4
20260502203511 21 133 4.8 11.3 0.00 0.00 0.00 28 1022.6
20260502203011 21 277 1.6 14.5 0.00 0.00 0.00 29 1022.7
20260502202509 20 171 3.2 14.5 0.00 0.00 0.00 29 1022.7
20260502202009 21 182 9.7 14.5 0.00 0.00 0.00 29 1022.7
20260502201509 21 60 4.8 22.5 0.00 0.00 0.00 29 1022.7
20260502201009 21 58 12.9 22.5 0.00 0.00 0.00 28 1022.9
20260502200507 21 204 6.4 17.7 0.00 0.00 0.00 29 1022.9
20260502200007 21 135 6.4 16.1 0.00 0.00 0.00 29 1023.0
20260502195004 21 102 4.8 12.9 0.00 0.00 0.00 30 1023.2
20260502194504 20 261 1.6 12.9 0.00 0.00 0.00 28 1023.3
20260502194005 21 62 3.2 12.9 0.00 0.00 0.00 28 1023.3
20260502193503 21 80 4.8 12.9 0.00 0.00 0.00 28 1023.3
20260502193003 21 158 6.4 12.9 0.00 0.00 0.00 29 1023.4
20260502192503 21 205 4.8 12.9 0.00 0.00 0.00 28 1023.5
20260502192002 21 103 4.8 17.7 0.00 0.00 0.00 28 1023.5
20260502191503 21 56 6.4 17.7 0.00 0.00 0.00 29 1023.7
20260502191002 21 134 4.8 19.3 0.00 0.00 0.00 29 1023.7
20260502190501 21 73 11.3 19.3 0.00 0.00 0.00 29 1023.7
20260502190108 21 56 3.2 12.9 0.00 0.00 0.00 28 1023.8
20260502185059 21 58 4.8 16.1 0.00 0.00 0.00 28 1024.0
20260502184601 21 89 9.7 16.1 0.00 0.00 0.00 28 1024.2
20260502184058 21 27 8.0 14.5 0.00 0.00 0.00 28 1024.1
20260502183556 21 38 3.2 12.9 0.00 0.00 0.00 29 1024.1
20260502183055 20 45 6.4 12.9 0.00 0.00 0.00 30 1024.2
20260502182554 20 41 3.2 11.3 0.00 0.00 0.00 31 1024.3
20260502182058 20 235 4.8 14.5 0.00 0.00 0.00 31 1024.3
20260502181556 20 225 6.4 14.5 0.00 0.10 0.00 31 1024.4
20260502181053 20 54 4.8 14.5 0.00 0.10 0.00 31 1024.5
20260502180554 19 122 4.8 14.5 0.00 0.10 0.00 32 1024.4
20260502180119 19 161 6.4 16.1 0.00 0.10 0.00 34 1024.4
20260502164051 18 37 4.8 14.5 0.00 0.58 0.00 34 1025.1
20260502163550 18 37 4.8 16.1 0.00 0.58 0.00 35 1025.1
20260502163049 18 66 4.8 16.1 0.00 0.58 0.00 35 1025.1
20260502162549 18 187 1.6 17.7 0.00 0.58 0.00 36 1025.1
20260502162049 18 58 9.7 17.7 0.00 0.58 0.00 36 1025.1
20260502161548 18 71 6.4 14.5 0.00 1.57 0.00 36 1025.2
20260502161046 18 183 4.8 8.0 0.00 1.57 0.00 37 1025.2
20260502160546 18 36 0.0 9.7 0.00 1.57 0.00 38 1025.2
20260502152040 16 94 4.8 11.3 0.00 1.57 0.00 42 1025.4
20260502151537 16 195 3.2 8.0 0.00 1.57 0.00 41 1025.4
20260502151037 16 161 1.6 6.4 0.00 1.57 0.00 41 1025.4
20260502150537 16 112 4.8 6.4 0.00 1.57 0.00 40 1025.4
20260502130523 11 122 0.0 3.2 0.00 2.01 0.00 63 1024.6
20260502123513 10 117 1.6 4.8 0.00 2.01 0.00 64 1024.3
20260502123013 10 117 0.0 0.0 0.00 2.01 0.00 64 1024.2
20260502122514 10 117 0.0 1.6 0.00 2.01 0.00 64 1024.1
20260502122015 10 117 0.0 1.6 0.00 2.01 0.00 64 1024.1
20260502121512 10 117 0.0 0.0 0.00 2.01 0.00 64 1024.1
20260502121012 10 117 0.0 1.6 0.00 2.01 0.00 64 1024.0
20260502120511 10 117 0.0 3.2 0.00 2.01 0.00 64 1024.0
20260502115010 10 117 0.0 1.6 0.00 2.01 0.00 64 1023.9
20260502114507 10 117 0.0 1.6 0.00 2.01 0.00 64 1023.9
20260502114007 10 117 0.0 1.6 0.00 2.01 0.00 64 1023.9
20260502113506 10 117 0.0 3.2 0.00 2.01 0.00 64 1023.9
20260502113013 10 117 0.0 3.2 0.00 2.01 0.00 64 1023.9
20260502112506 10 117 0.0 3.2 0.00 2.01 0.00 65 1023.8
20260502112006 10 117 1.6 3.2 0.00 2.01 0.00 65 1023.8
20260502111505 10 117 0.0 4.8 0.00 2.01 0.00 64 1023.9
20260502111005 10 117 0.0 4.8 0.00 2.01 0.00 64 1023.9
20260502110504 10 117 1.6 4.8 0.00 2.01 0.00 64 1023.9
20260502110004 10 113 0.0 3.2 0.00 2.01 0.00 64 1023.9
20260502105008 10 101 1.6 3.2 0.00 2.01 0.00 64 1023.9
20260502104507 10 100 0.0 1.6 0.00 2.01 0.00 64 1023.8
20260502104006 10 100 0.0 1.6 0.00 2.01 0.00 64 1023.9
20260502103506 10 100 0.0 1.6 0.00 2.01 0.00 64 1023.7
20260502103006 10 100 0.0 3.2 0.00 2.01 0.00 64 1023.8
20260502102505 10 100 1.6 4.8 0.00 2.01 0.00 64 1023.6
20260502102004 10 103 0.0 3.2 0.00 2.01 0.00 64 1023.6
20260502101504 10 103 0.0 1.6 0.00 2.01 2.01 64 1023.6
20260502101005 10 103 0.0 0.0 0.00 2.01 2.01 64 1023.6
20260502100503 10 103 0.0 0.0 0.00 2.01 2.01 64 1023.7
20260502091058 9 104 0.0 1.6 0.00 2.01 2.01 65 1023.0
20260502090555 9 104 0.0 1.6 0.00 2.01 2.01 65 1022.9
20260502071043 10 109 0.0 0.0 0.00 2.01 2.01 64 1022.2
20260502070543 10 109 0.0 0.0 0.00 2.01 2.01 64 1022.2
20260502070042 10 109 0.0 0.0 0.00 2.01 2.01 64 1022.1
20260502065046 11 109 0.0 0.0 0.00 2.01 2.01 63 1022.2
20260502064546 11 109 0.0 0.0 0.00 2.01 2.01 63 1022.2
20260502064044 11 109 0.0 0.0 0.00 2.01 2.01 62 1022.1
20260502063544 11 109 0.0 0.0 0.00 2.01 2.01 62 1022.1
20260502063043 11 109 0.0 0.0 0.00 2.01 2.01 61 1022.1
20260502062543 11 109 0.0 0.0 0.00 2.01 2.01 61 1022.1
20260502062043 11 109 0.0 1.6 0.00 2.01 2.01 61 1022.1
20260502061542 11 109 0.0 3.2 0.00 2.01 2.01 60 1022.1
20260502061041 11 109 0.0 3.2 0.00 2.01 2.01 60 1022.0
20260502060540 11 109 1.6 3.2 0.00 2.01 2.01 60 1021.9
20260502060040 11 109 0.0 3.2 0.00 2.01 2.01 60 1022.0
20260502055036 12 109 0.0 3.2 0.00 2.01 2.01 59 1022.1
20260502054535 12 109 0.0 3.2 0.00 2.01 2.01 59 1022.1
20260502054034 12 109 0.0 3.2 0.00 2.01 2.01 58 1021.9
20260502053535 12 109 0.0 1.6 0.00 2.01 2.01 58 1022.0
20260502053037 12 109 0.0 3.2 0.00 2.01 2.01 57 1022.0
20260502052532 12 109 0.0 3.2 0.00 2.01 2.01 56 1021.9
20260502052036 12 109 0.0 3.2 0.00 2.01 2.01 56 1021.9
20260502051535 12 108 0.0 3.2 0.00 2.01 2.01 55 1021.9
20260502051031 12 108 1.6 6.4 0.00 2.01 2.01 55 1022.0
20260502050530 12 108 3.2 6.4 0.00 2.01 2.01 55 1021.8
20260502050030 12 80 1.6 6.4 0.00 2.01 2.01 55 1021.8
20260502045034 12 112 0.0 3.2 0.00 2.01 2.01 57 1021.8
20260502044534 12 112 0.0 3.2 0.00 2.01 2.01 57 1021.8
20260502044034 12 112 0.0 3.2 0.00 2.01 2.01 56 1021.7
20260502043532 12 112 0.0 4.8 0.00 2.01 2.01 56 1021.6
20260502043032 13 112 0.0 9.7 0.00 2.01 2.01 56 1021.4
20260502042531 13 122 3.2 9.7 0.00 2.01 2.01 56 1021.4
20260502042031 13 59 1.6 8.0 0.00 2.01 2.01 56 1021.3
20260502041535 13 117 3.2 9.7 0.00 2.01 2.01 56 1021.3
20260502041030 13 112 3.2 9.7 0.00 2.01 2.01 56 1021.2
20260502040530 13 95 3.2 8.0 0.00 2.01 2.01 57 1021.1
20260502040029 13 122 3.2 8.0 0.00 2.01 2.01 56 1021.0
20260502035022 13 106 1.6 6.4 0.00 2.01 2.01 55 1021.0
20260502034527 13 108 0.0 6.4 0.00 2.01 2.01 55 1020.9
20260502034023 13 58 1.6 4.8 0.00 2.01 2.01 54 1020.8
20260502033520 13 57 0.0 6.4 0.00 2.01 2.01 54 1020.8
20260502033121 13 56 3.2 8.0 0.00 2.01 2.01 53 1020.8
20260502032523 13 109 3.2 8.0 0.00 2.01 2.01 53 1020.8
20260502032018 13 55 3.2 16.1 0.00 2.01 2.01 53 1020.7
20260502031518 13 62 9.7 16.1 0.00 2.01 2.01 53 1020.6
20260502031018 14 62 6.4 17.7 0.00 2.01 2.01 53 1020.6
20260502030519 14 71 8.0 17.7 0.00 2.01 2.01 53 1020.5
20260502030017 14 109 4.8 11.3 0.00 2.01 2.01 54 1020.4
20260502025013 14 62 3.2 12.9 0.00 2.01 2.01 55 1020.2
20260502024514 14 61 4.8 12.9 0.00 2.01 2.01 55 1020.1
20260502024015 14 56 4.8 16.1 0.00 2.01 2.01 55 1020.1
20260502023513 14 52 8.0 16.1 0.00 2.01 2.01 55 1020.0
20260502023012 14 58 6.4 12.9 0.00 2.01 2.01 56 1020.0
20260502022513 13 48 6.4 12.9 0.00 2.01 2.01 56 1019.7
20260502022014 13 65 3.2 6.4 0.00 2.01 2.01 57 1019.6
20260502021508 13 94 1.6 4.8 0.00 2.01 2.01 57 1019.6
20260502021008 13 107 0.0 11.3 0.00 2.01 2.01 57 1019.4
20260502020507 13 131 4.8 12.9 0.00 2.01 2.01 56 1019.2
20260502020014 13 56 4.8 12.9 0.00 2.01 2.01 56 1019.2
20260502015011 13 63 6.4 14.5 0.00 2.01 2.01 56 1019.1
20260502014507 13 48 6.4 17.7 0.00 2.01 2.01 56 1018.9
20260502014007 13 54 9.7 17.7 0.00 2.01 2.01 56 1018.9
20260502013508 13 52 6.4 17.7 0.00 2.01 2.01 57 1018.9
20260502013106 13 69 8.0 22.5 0.00 2.01 2.01 57 1018.8
20260502012506 13 70 12.9 22.5 0.00 2.01 2.01 57 1018.7
20260502012010 13 46 14.5 22.5 0.00 2.01 2.01 57 1018.7
20260502011514 14 110 9.7 17.7 0.00 2.01 2.01 57 1018.6
20260502011004 14 81 9.7 17.7 0.00 2.01 2.01 57 1018.3
20260502010501 14 100 8.0 16.1 0.00 2.01 2.01 57 1018.2
20260502010001 14 46 8.0 17.7 0.00 2.01 2.01 57 1017.9
20260502005100 14 50 11.3 17.7 0.00 2.01 2.01 57 1017.7
20260502004603 14 66 9.7 22.5 0.00 2.01 2.01 57 1017.6
20260502004053 14 43 9.7 24.1 0.00 2.01 2.01 56 1017.3
20260502003552 15 68 12.9 27.4 0.00 2.01 2.01 57 1017.2
20260502003052 15 48 9.7 20.9 0.00 2.01 2.01 56 1017.2
20260502002551 15 36 8.0 24.1 0.00 2.01 2.01 56 1017.0
20260502002051 15 31 12.9 27.4 0.00 2.01 2.01 56 1016.8
20260502001549 15 73 14.5 27.4 0.00 2.01 2.01 55 1016.7
20260502001049 15 69 17.7 27.4 0.00 2.01 2.01 55 1016.5
20260502000551 15 55 14.5 20.9 0.00 2.01 2.01 56 1016.4
20260502000148 15 66 8.0 16.1 0.00 2.01 2.01 55 1016.3
20260501235056 15 99 6.4 16.1 0.00 2.01 2.01 55 1016.2
20260501234557 15 88 8.0 20.9 0.00 2.01 2.01 54 1016.1
20260501234100 15 54 12.9 24.1 0.00 2.01 2.01 54 1016.0
20260501233556 15 74 17.7 24.1 0.00 2.01 2.01 53 1016.0
20260501233056 15 67 11.3 22.5 0.00 2.01 2.01 54 1015.7
20260501232556 15 71 14.5 22.5 0.00 2.01 2.01 54 1015.8
20260501232059 16 60 11.3 20.9 0.00 2.01 2.01 53 1015.9
20260501231602 16 62 14.5 20.9 0.00 2.01 2.01 53 1015.7
20260501231054 16 68 8.0 20.9 0.00 2.01 2.01 53 1015.6
20260501230555 16 89 14.5 22.5 0.00 2.01 2.01 53 1015.4
20260501230055 16 52 14.5 22.5 0.00 2.01 2.01 53 1015.4
20260501225052 16 137 9.7 22.5 0.00 2.01 2.01 54 1015.2
20260501224600 16 58 4.8 22.5 0.00 2.01 2.01 54 1015.0
20260501224052 16 86 11.3 17.7 0.00 2.01 2.01 55 1015.0
20260501223553 16 106 8.0 20.9 0.00 2.01 2.01 55 1014.9
20260501223107 16 66 9.7 20.9 0.00 2.01 2.01 55 1014.9
20260501222551 16 77 11.3 20.9 0.00 2.01 2.01 54 1015.0
20260501222054 16 43 4.8 25.7 0.00 2.01 2.01 54 1014.9
20260501221610 16 97 16.1 25.7 0.00 2.01 2.01 53 1014.8
20260501221052 16 122 8.0 17.7 0.00 2.01 2.01 54 1014.8
20260501220550 16 71 11.3 25.7 0.00 2.01 2.01 54 1014.8
20260501220150 16 87 12.9 25.7 0.00 2.01 2.01 54 1014.8
20260501215650 16 66 14.5 24.1 0.00 2.01 2.01 53 1014.9
20260501215048 16 58 14.5 20.9 0.00 2.01 2.01 54 1014.8
20260501214548 16 73 12.9 19.3 0.00 2.01 2.01 53 1014.9
20260501214147 16 156 9.7 24.1 0.00 2.01 2.01 54 1014.9
20260501213547 16 56 12.9 24.1 0.00 2.01 2.01 53 1014.8
20260501213048 16 43 14.5 20.9 0.00 2.01 2.01 53 1014.8
20260501212548 16 58 9.7 22.5 0.00 2.01 2.01 54 1014.9